Weather History for KAVL - March, 2015

Change the Weather History Date:

Thursday, March 12, 2015

  Actual Average Record
Temperature  
Mean Temperature 57 °F 46 °F  
Max Temperature 65 °F 57 °F 83 °F (1911)
Min Temperature 48 °F 35 °F 14 °F (1998)
Degree Days  
Heating Degree Days 8 19  
Month to date heating degree days 193 243  
Since 1 July heating degree days 3502 3460  
Cooling Degree Days 0 0  
Month to date cooling degree days 0 0  
Year to date cooling degree days 0 0  
Growing Degree Days 6 (Base 50)    
Moisture  
Dew Point 47 °F    
Average Humidity 64    
Maximum Humidity 100    
Minimum Humidity 28    
Precipitation  
Precipitation 0.00 in 0.12 in 4.17 in (1968)
Month to date precipitation 0.93 1.48  
Year to date precipitation 6.77 8.91  
Snow  
Snow 0.00 in 0.00 in 4.00 in (1993)
Month to date snowfall 0.0 0.8  
Since 1 July snowfall 13.3 8.1  
Snow Depth 0.00 in    
Sea Level Pressure  
Sea Level Pressure 30.34 in    
Wind  
Wind Speed 5 mph (East)    
Max Wind Speed 15 mph    
Max Gust Speed 19 mph    
Visibility 4 miles    
Events Fog    
T = Trace of Precipitation, MM = Missing Value Source: NWS Daily Summary

Daily Weather History Graph

Daily Weather History Graph

Search for Another Location

Airport or City:

Trip Planner

Search our weather history database for the weather conditions in past years. The results will help you decide how hot, cold, wet, or windy it might be!

Date:

Astronomy

Mar. 12, 2015 Rise Set
Actual Time 7:45 AM EDT 7:34 PM EDT
Civil Twilight 7:20 AM EDT 8:00 PM EDT
Nautical Twilight 6:50 AM EDT 8:29 PM EDT
Astronomical Twilight 6:20 AM EDT 8:59 PM EDT
Moon 1:08 AM EDT (3/12) 11:48 AM EDT (3/12)
Length of Visible Light 12h 40m
Length of Day
11h 49m
Waning Gibbous, 61% of the Moon is Illuminated
Mar 12
Waning Gibbous
Mar 13
Last Quarter
Mar 20
New
Mar 27
First Quarter
Apr 4
Full

Hourly Weather History & Observations

Time (EDT) Temp. Dew Point Humidity Pressure Visibility Wind Dir Wind Speed Gust Speed Precip Events Conditions
12:54 AM 55.0 °F 52.0 °F 89% 30.26 in 10.0 mi North 4.6 mph - N/A   Clear
1:22 AM 52.0 °F 50.0 °F 93% 30.30 in 1.8 mi Calm Calm - N/A   Partly Cloudy
1:29 AM 54.0 °F 52.0 °F 93% 30.30 in 3.0 mi Calm Calm - N/A   Scattered Clouds
1:40 AM 52.0 °F 51.1 °F 97% 30.30 in 1.8 mi Calm Calm - N/A   Scattered Clouds
1:50 AM 51.8 °F 50.0 °F 94% 30.30 in 3.0 mi Calm Calm - N/A   Partly Cloudy
1:54 AM 53.1 °F 51.1 °F 93% 30.27 in 3.0 mi North 3.5 mph - N/A   Partly Cloudy
2:11 AM 52.0 °F 51.1 °F 97% 30.31 in 1.8 mi NNW 4.6 mph - N/A   Partly Cloudy
2:13 AM 51.1 °F 50.0 °F 96% 30.31 in 1.0 mi North 5.8 mph - N/A   Mist
2:20 AM 51.1 °F 50.0 °F 96% 30.31 in 0.8 mi NNW 4.6 mph - N/A   Mist
2:25 AM 50.0 °F 48.9 °F 96% 30.31 in 1.2 mi NNW 5.8 mph - N/A   Partly Cloudy
2:32 AM 50.0 °F 48.9 °F 96% 30.31 in 1.8 mi North 4.6 mph - N/A   Partly Cloudy
2:44 AM 50.0 °F 48.9 °F 96% 30.31 in 0.8 mi NNW 6.9 mph - N/A   Mostly Cloudy
2:52 AM 51.8 °F 50.0 °F 94% 30.31 in 1.5 mi North 3.5 mph - N/A   Mostly Cloudy
2:54 AM 51.1 °F 50.0 °F 96% 30.28 in 2.0 mi Calm Calm - N/A   Mostly Cloudy
3:02 AM 51.1 °F 48.9 °F 92% 30.31 in 5.0 mi NNW 4.6 mph - N/A   Overcast
3:09 AM 50.0 °F 50.0 °F 100% 30.31 in 1.8 mi NNW 4.6 mph - N/A   Overcast
3:14 AM 50.0 °F 48.9 °F 96% 30.31 in 0.8 mi Calm Calm - N/A   Overcast
3:44 AM 50.0 °F 48.0 °F 93% 30.32 in 0.5 mi Calm Calm - N/A Fog Fog
3:54 AM 48.9 °F 48.0 °F 97% 30.29 in 0.5 mi Calm Calm - N/A Fog Fog
4:04 AM 48.9 °F 46.9 °F 93% 30.31 in 0.5 mi Calm Calm - N/A Fog Fog
4:14 AM 48.9 °F 48.0 °F 97% 30.31 in 0.2 mi Calm Calm - N/A Fog Fog
4:24 AM 50.0 °F 48.0 °F 93% 30.31 in 0.5 mi Calm Calm - N/A Fog Fog
4:54 AM 50.0 °F 48.9 °F 96% 30.29 in 0.5 mi Calm Calm - N/A Fog Fog
5:07 AM 48.9 °F 48.0 °F 97% 30.32 in 0.2 mi Calm Calm - N/A Fog Fog
5:15 AM 50.0 °F 48.9 °F 96% 30.32 in 0.8 mi Calm Calm - N/A   Mist
5:18 AM 50.0 °F 48.9 °F 96% 30.32 in 1.8 mi Calm Calm - N/A   Overcast
5:21 AM 50.0 °F 48.9 °F 96% 30.32 in 4.0 mi Calm Calm - N/A   Overcast
5:36 AM 48.9 °F 48.0 °F 97% 30.33 in 10.0 mi Calm Calm - N/A   Overcast
5:46 AM 48.9 °F 48.0 °F 97% 30.33 in 4.0 mi Calm Calm - N/A   Overcast
5:54 AM 50.0 °F 48.0 °F 93% 30.31 in 5.0 mi Calm Calm - N/A   Overcast
6:05 AM 50.0 °F 48.9 °F 96% 30.33 in 1.8 mi Calm Calm - N/A   Overcast
6:13 AM 50.0 °F 48.0 °F 93% 30.34 in 1.0 mi Calm Calm - N/A   Overcast
6:32 AM 50.0 °F 48.9 °F 96% 30.35 in 0.8 mi Calm Calm - N/A   Mist
6:54 AM 51.1 °F 48.9 °F 92% 30.32 in 0.8 mi Calm Calm - N/A   Mist
7:50 AM 51.8 °F 50.0 °F 94% 30.37 in 0.2 mi Calm Calm - N/A Fog Fog
7:54 AM 51.1 °F 50.0 °F 96% 30.34 in 0.2 mi Calm Calm - N/A Fog Fog
8:54 AM 50.0 °F 48.9 °F 96% 30.36 in 0.2 mi South 3.5 mph - N/A Fog Fog
9:48 AM 53.6 °F 51.8 °F 94% 30.41 in 1.0 mi Calm Calm - N/A   Mist
9:51 AM 53.6 °F 51.8 °F 94% 30.40 in 3.0 mi Calm Calm - N/A   Overcast
9:54 AM 53.1 °F 51.1 °F 93% 30.37 in 6.0 mi Calm Calm - N/A   Overcast
10:02 AM 53.1 °F 52.0 °F 96% 30.41 in 1.0 mi Calm Calm - N/A   Mostly Cloudy
10:35 AM 53.1 °F 52.0 °F 96% 30.42 in 7.0 mi Calm Calm - N/A   Overcast
10:44 AM 54.0 °F 52.0 °F 93% 30.43 in 9.0 mi South 3.5 mph - N/A   Overcast
10:54 AM 55.9 °F 53.1 °F 90% 30.40 in 10.0 mi SSE 3.5 mph - N/A   Overcast
11:54 AM 61.0 °F 46.0 °F 58% 30.39 in 10.0 mi South 8.1 mph - N/A   Overcast
12:54 PM 64.9 °F 30.0 °F 27% 30.37 in 10.0 mi ESE 9.2 mph - N/A   Partly Cloudy
1:54 PM 63.0 °F 37.0 °F 38% 30.37 in 10.0 mi SSE 12.7 mph - N/A   Scattered Clouds
2:54 PM 63.0 °F 34.0 °F 34% 30.35 in 10.0 mi SSE 10.4 mph - N/A   Overcast
3:54 PM 62.6 °F 35.6 °F 37% 30.38 in 10.0 mi SE 10.4 mph - N/A   Mostly Cloudy
4:54 PM 62.1 °F 37.0 °F 39% 30.37 in 10.0 mi East 6.9 mph - N/A   Overcast
5:54 PM 61.0 °F 37.9 °F 42% 30.37 in 10.0 mi ESE 4.6 mph - N/A   Mostly Cloudy
6:54 PM 60.1 °F 39.0 °F 46% 30.39 in 10.0 mi ESE 4.6 mph - N/A   Overcast
7:54 PM 59.0 °F 39.0 °F 48% 30.41 in 10.0 mi SE 6.9 mph - N/A   Overcast
8:54 PM 57.9 °F 39.0 °F 49% 30.43 in 10.0 mi SSE 5.8 mph - N/A   Overcast
9:54 PM 57.9 °F 39.0 °F 49% 30.43 in 10.0 mi Variable 5.8 mph - N/A   Overcast
10:54 PM 57.0 °F 39.0 °F 51% 30.44 in 10.0 mi ESE 9.2 mph 17.3 mph N/A   Overcast
11:54 PM 55.9 °F 34.0 °F 44% 30.44 in 10.0 mi ESE 8.1 mph - N/A   Overcast